Weather in Vanino

Russia / Khabarovsk Krai     49°05′27″N   140°15′22″E
temp.,
°C
wind,
m/s
gust,
m/s
humid.,
%
clouds,
%
prec.,
mm/h
press.,
hPa
HPBL,
m
17 may, mon
mon1701:00+11w226214 0.0 100014
04:00+7nnw11775 0.0 100110
07:00+11nw01631 0.0 100199
10:00+12ne33636 0.0 1002414
13:00+14e33569 0.0 1002465
16:00+16se23469 0.0 1001590
19:00+13sse26525 0.0 1002270
22:00+10sw22650 0.0 100230
18 may, tue
tue1801:00+10wsw22620 0.0 100318
04:00+10sw22605 0.0 100319
07:00+14sw24515 0.0 1003105
10:00+21s46301 0.0 10021050
13:00+24s482759 0.0 10012559
16:00+23s3730100 0.1 1000929
19:00+20sse334697 0.3 100150
22:00+16ssw3552100 0.3 100280
19 may, wed
wed1901:00+14ssw335798 0.0 100247
04:00+13ssw12604 0.0 100218
07:00+15se125770 0.0 100371
10:00+17e22499 0.0 1002274
13:00+17e334968 0.0 1001298
16:00+9nne6128050 0.4 1005435
19:00+9nne358710 1.1 1006227
22:00+7n129614 1.1 100877
20 may, thu
thu2001:00+8w00947 0.0 100910
04:00+7ene119613 0.0 101010
07:00+8e118814 0.0 1011126
10:00+13ese236811 0.0 1009386
13:00+15se365910 0.0 1007388
16:00+14sse476537 0.1 1005317
19:00+10s348889 2.1 1004157
22:00+9sse229884 3.8 100545
21 may, fri
fri2101:00+11s2292100 0.0 100331
04:00+9sse2295100 0.0 100328
07:00+14nne118513 0.2 100459
10:00+20ene235924 0.4 1004370
13:00+8ne598672 0.0 1007276
16:00+10ne467849 0.1 1008330
19:00+7nne3687100 0.0 1010220
22:00+6nw2392100 0.0 101274